FSF120A LGMK-LGKR

Flight info

Callsign FSF120A
Flight time 1h 23m
Altitude 26000
Route VARIX UL995 VARDI
Aircraft PC12/L-SDFGRWY/S

Departure

Time 2026-04-23 05:25
Airport Mykonos Island National Airport (LGMK)

Arrival

Time 2026-04-23 06:49
Airport Corfu Ioannis Kapodistrias International Airport (LGKR)
Time Latitude Longitude Altitude Speed Heading
2026-04-23 05:07 37.43389 25.34699 404 ft 0 kts 251°
2026-04-23 05:23 37.43389 25.34698 404 ft 2 kts 251°
2026-04-23 05:23 37.43389 25.34697 404 ft 0 kts 250°
2026-04-23 05:23 37.43394 25.34694 404 ft 4 kts 37°
2026-04-23 05:23 37.43403 25.34748 404 ft 0 kts 71°
2026-04-23 05:24 37.43409 25.34792 406 ft 11 kts 98°
2026-04-23 05:24 37.43448 25.34850 407 ft 7 kts 345°
2026-04-23 05:25 37.43611 25.34778 407 ft 52 kts 339°
2026-04-23 05:25 37.44108 25.34551 471 ft 91 kts 337°
2026-04-23 05:25 37.44727 25.34197 755 ft 110 kts 334°
2026-04-23 05:25 37.45328 25.33511 1146 ft 124 kts 299°
2026-04-23 05:26 37.45794 25.32580 1663 ft 131 kts 313°
2026-04-23 05:26 37.46460 25.31840 2397 ft 123 kts 321°
2026-04-23 05:26 37.46798 25.30883 3043 ft 127 kts 277°
2026-04-23 05:26 37.46952 25.29675 3444 ft 146 kts 283°
2026-04-23 05:27 37.47139 25.28513 4290 ft 133 kts 282°
2026-04-23 05:27 37.47333 25.27350 4949 ft 134 kts 279°
2026-04-23 05:27 37.47511 25.26143 5421 ft 151 kts 280°
2026-04-23 05:27 37.47666 25.25267 5879 ft 147 kts 281°
2026-04-23 05:28 37.47871 25.24081 6705 ft 138 kts 280°
2026-04-23 05:28 37.48283 25.22525 7551 ft 141 kts 290°
2026-04-23 05:28 37.48520 25.21769 8000 ft 140 kts 288°
2026-04-23 05:28 37.48866 25.20615 8668 ft 141 kts 288°
2026-04-23 05:29 37.49208 25.19457 9350 ft 141 kts 288°
2026-04-23 05:29 37.49549 25.18294 10023 ft 142 kts 288°
2026-04-23 05:29 37.49888 25.17134 10734 ft 140 kts 288°
2026-04-23 05:29 37.50223 25.15989 11485 ft 139 kts 287°
2026-04-23 05:30 37.50555 25.14853 12232 ft 138 kts 287°
2026-04-23 05:30 37.50885 25.13723 13005 ft 137 kts 287°
2026-04-23 05:30 37.51214 25.12598 13762 ft 136 kts 286°
2026-04-23 05:30 37.51536 25.11493 14403 ft 137 kts 286°
2026-04-23 05:31 37.51866 25.10363 15018 ft 138 kts 287°
2026-04-23 05:31 37.52199 25.09223 15645 ft 139 kts 287°
2026-04-23 05:31 37.52534 25.08072 16281 ft 141 kts 287°
2026-04-23 05:31 37.52872 25.06913 16919 ft 142 kts 287°
2026-04-23 05:32 37.53214 25.05738 17572 ft 143 kts 287°
2026-04-23 05:32 37.53559 25.04555 18220 ft 145 kts 287°
2026-04-23 05:32 37.53908 25.03357 18785 ft 146 kts 287°
2026-04-23 05:32 37.54258 25.02153 19351 ft 147 kts 287°
2026-04-23 05:33 37.54611 25.00938 19928 ft 148 kts 287°
2026-04-23 05:33 37.54967 24.99712 20506 ft 149 kts 287°
2026-04-23 05:33 37.55327 24.98476 21092 ft 151 kts 287°
2026-04-23 05:33 37.55689 24.97228 21675 ft 152 kts 287°
2026-04-23 05:34 37.56054 24.95973 22245 ft 153 kts 287°
2026-04-23 05:34 37.56422 24.94704 22829 ft 155 kts 287°
2026-04-23 05:34 37.56794 24.93422 23394 ft 156 kts 287°
2026-04-23 05:34 37.57159 24.92161 23918 ft 155 kts 287°
2026-04-23 05:35 37.57527 24.90891 24431 ft 153 kts 286°
2026-04-23 05:35 37.57892 24.89631 24943 ft 153 kts 286°
2026-04-23 05:35 37.58254 24.88377 25462 ft 152 kts 286°
2026-04-23 05:35 37.58616 24.87126 25879 ft 154 kts 286°
2026-04-23 05:36 37.59006 24.85769 25980 ft 177 kts 287°
2026-04-23 05:36 37.59458 24.84211 25988 ft 199 kts 287°
2026-04-23 05:36 37.59955 24.82495 25989 ft 217 kts 287°
2026-04-23 05:36 37.60489 24.80654 25989 ft 229 kts 287°
2026-04-23 05:37 37.61044 24.78730 25982 ft 236 kts 287°
2026-04-23 05:37 37.61608 24.76781 25978 ft 235 kts 287°
2026-04-23 05:37 37.62164 24.74852 25982 ft 233 kts 287°
2026-04-23 05:37 37.62714 24.72939 25984 ft 232 kts 287°
2026-04-23 05:38 37.63265 24.71022 25981 ft 232 kts 287°
2026-04-23 05:38 37.63805 24.69142 25980 ft 231 kts 287°
2026-04-23 05:38 37.64350 24.67245 25982 ft 230 kts 287°
2026-04-23 05:38 37.64896 24.65343 25988 ft 230 kts 287°
2026-04-23 05:39 37.65439 24.63450 25988 ft 229 kts 287°
2026-04-23 05:39 37.65984 24.61546 25993 ft 231 kts 287°
2026-04-23 05:39 37.66530 24.59639 25992 ft 232 kts 287°
2026-04-23 05:39 37.67079 24.57721 25992 ft 233 kts 287°
2026-04-23 05:40 37.67630 24.55796 25997 ft 233 kts 287°
2026-04-23 05:40 37.68179 24.53874 25994 ft 233 kts 287°
2026-04-23 05:40 37.68727 24.51956 25997 ft 233 kts 287°
2026-04-23 05:40 37.69276 24.50033 25996 ft 233 kts 287°
2026-04-23 05:41 37.69825 24.48108 25999 ft 233 kts 287°
2026-04-23 05:41 37.70372 24.46188 26000 ft 232 kts 287°
2026-04-23 05:41 37.70918 24.44271 26000 ft 232 kts 287°
2026-04-23 05:41 37.71458 24.42373 26004 ft 232 kts 287°
2026-04-23 05:42 37.72005 24.40448 26006 ft 232 kts 287°
2026-04-23 05:42 37.72549 24.38532 26001 ft 232 kts 287°
2026-04-23 05:42 37.73093 24.36617 26004 ft 232 kts 287°
2026-04-23 05:42 37.73636 24.34703 26006 ft 231 kts 287°
2026-04-23 05:43 37.74179 24.32789 26013 ft 231 kts 287°
2026-04-23 05:43 37.74721 24.30877 26011 ft 231 kts 287°
2026-04-23 05:43 37.75262 24.28963 26018 ft 231 kts 287°
2026-04-23 05:43 37.75802 24.27054 26013 ft 231 kts 287°
2026-04-23 05:44 37.76343 24.25141 26015 ft 231 kts 287°
2026-04-23 05:44 37.76883 24.23232 26017 ft 231 kts 287°
2026-04-23 05:44 37.77422 24.21324 26024 ft 230 kts 287°
2026-04-23 05:44 37.77960 24.19415 26017 ft 230 kts 287°
2026-04-23 05:45 37.78497 24.17508 26029 ft 230 kts 287°
2026-04-23 05:45 37.79035 24.15602 26030 ft 230 kts 287°
2026-04-23 05:45 37.79563 24.13725 26031 ft 230 kts 287°
2026-04-23 05:45 37.80098 24.11824 26030 ft 230 kts 287°
2026-04-23 05:46 37.80633 24.09921 26023 ft 229 kts 287°
2026-04-23 05:46 37.81167 24.08019 26026 ft 229 kts 287°
2026-04-23 05:46 37.81700 24.06119 26024 ft 229 kts 287°
2026-04-23 05:46 37.82232 24.04222 26027 ft 229 kts 286°
2026-04-23 05:47 37.82764 24.02326 26028 ft 228 kts 286°
2026-04-23 05:47 37.83294 24.00436 26030 ft 228 kts 286°
2026-04-23 05:47 37.83823 23.98544 26028 ft 228 kts 286°
2026-04-23 05:47 37.84352 23.96650 26034 ft 228 kts 286°
2026-04-23 05:48 37.84881 23.94757 26029 ft 229 kts 286°
2026-04-23 05:48 37.85411 23.92860 26028 ft 229 kts 286°
2026-04-23 05:48 37.85941 23.90962 26029 ft 228 kts 287°
2026-04-23 05:48 37.86470 23.89067 26027 ft 228 kts 286°
2026-04-23 05:49 37.86997 23.87175 26029 ft 228 kts 286°
2026-04-23 05:49 37.87524 23.85284 26027 ft 227 kts 287°
2026-04-23 05:49 37.88222 23.83510 26031 ft 229 kts 294°
2026-04-23 05:49 37.88995 23.81746 26026 ft 228 kts 294°
2026-04-23 05:50 37.89746 23.79989 26031 ft 228 kts 294°
2026-04-23 05:50 37.90505 23.78220 26035 ft 229 kts 294°
2026-04-23 05:50 37.91269 23.76447 26038 ft 230 kts 294°
2026-04-23 05:50 37.92036 23.74672 26034 ft 229 kts 294°
2026-04-23 05:51 37.92793 23.72916 26035 ft 226 kts 294°
2026-04-23 05:51 37.93541 23.71176 26034 ft 224 kts 294°
2026-04-23 05:51 37.94284 23.69445 26032 ft 223 kts 293°
2026-04-23 05:51 37.95028 23.67715 26032 ft 224 kts 293°
2026-04-23 05:52 37.95775 23.65974 26034 ft 225 kts 294°
2026-04-23 05:52 37.96524 23.64229 26036 ft 225 kts 294°
2026-04-23 05:52 37.97249 23.62541 26035 ft 225 kts 293°
2026-04-23 05:52 37.97997 23.60797 26033 ft 225 kts 293°
2026-04-23 05:53 37.98745 23.59052 26030 ft 226 kts 293°
2026-04-23 05:53 37.99496 23.57298 26030 ft 226 kts 293°
2026-04-23 05:53 38.00237 23.55568 26031 ft 226 kts 293°
2026-04-23 05:53 38.00987 23.53814 26029 ft 227 kts 293°
2026-04-23 05:54 38.01740 23.52053 26030 ft 227 kts 293°
2026-04-23 05:54 38.02491 23.50297 26027 ft 225 kts 293°
2026-04-23 05:54 38.03233 23.48561 26021 ft 223 kts 293°
2026-04-23 05:54 38.03969 23.46837 26022 ft 222 kts 293°
2026-04-23 05:55 38.04705 23.45109 26023 ft 224 kts 293°
2026-04-23 05:55 38.05448 23.43367 26023 ft 224 kts 293°
2026-04-23 05:55 38.06191 23.41626 26026 ft 224 kts 293°
2026-04-23 05:55 38.06933 23.39886 26030 ft 224 kts 293°
2026-04-23 05:56 38.07675 23.38140 26033 ft 225 kts 293°
2026-04-23 05:56 38.08407 23.36421 26034 ft 223 kts 293°
2026-04-23 05:56 38.09145 23.34686 26040 ft 223 kts 293°
2026-04-23 05:56 38.09885 23.32946 26033 ft 224 kts 293°
2026-04-23 05:57 38.10622 23.31212 26037 ft 224 kts 293°
2026-04-23 05:57 38.11358 23.29476 26043 ft 223 kts 293°
2026-04-23 05:57 38.12097 23.27736 26044 ft 225 kts 293°
2026-04-23 05:57 38.12841 23.25982 26047 ft 225 kts 293°
2026-04-23 05:58 38.13580 23.24242 26046 ft 222 kts 293°
2026-04-23 05:58 38.14311 23.22517 26047 ft 221 kts 293°
2026-04-23 05:58 38.15035 23.20805 26045 ft 219 kts 292°
2026-04-23 05:58 38.15760 23.19090 26050 ft 221 kts 292°
2026-04-23 05:59 38.16488 23.17368 26054 ft 222 kts 292°
2026-04-23 05:59 38.17211 23.15659 26051 ft 222 kts 292°
2026-04-23 05:59 38.17952 23.13904 26050 ft 224 kts 292°
2026-04-23 05:59 38.18680 23.12183 26063 ft 224 kts 292°
2026-04-23 06:00 38.19415 23.10440 26063 ft 224 kts 292°
2026-04-23 06:00 38.20147 23.08708 26051 ft 219 kts 292°
2026-04-23 06:00 38.20864 23.07005 26056 ft 221 kts 292°
2026-04-23 06:00 38.21597 23.05261 26063 ft 225 kts 292°
2026-04-23 06:01 38.22328 23.03528 26058 ft 221 kts 292°
2026-04-23 06:01 38.23053 23.01809 26052 ft 220 kts 292°
2026-04-23 06:01 38.23773 23.00098 26054 ft 219 kts 292°
2026-04-23 06:01 38.24491 22.98389 26057 ft 219 kts 292°
2026-04-23 06:02 38.25210 22.96677 26057 ft 219 kts 292°
2026-04-23 06:02 38.25929 22.94965 26055 ft 218 kts 292°
2026-04-23 06:02 38.26637 22.93277 26053 ft 219 kts 292°
2026-04-23 06:02 38.27353 22.91571 26067 ft 219 kts 292°
2026-04-23 06:03 38.28071 22.89859 26059 ft 219 kts 292°
2026-04-23 06:03 38.28787 22.88150 26064 ft 219 kts 292°
2026-04-23 06:03 38.29505 22.86436 26058 ft 220 kts 292°
2026-04-23 06:03 38.30226 22.84715 26055 ft 221 kts 292°
2026-04-23 06:04 38.30947 22.82992 26053 ft 220 kts 292°
2026-04-23 06:04 38.31663 22.81279 26055 ft 219 kts 292°
2026-04-23 06:04 38.32382 22.79561 26055 ft 220 kts 292°
2026-04-23 06:04 38.33101 22.77837 26059 ft 221 kts 292°
2026-04-23 06:05 38.33823 22.76106 26063 ft 221 kts 292°
2026-04-23 06:05 38.34538 22.74394 26060 ft 222 kts 292°
2026-04-23 06:05 38.35262 22.72658 26063 ft 222 kts 292°
2026-04-23 06:05 38.35988 22.70918 26057 ft 222 kts 292°
2026-04-23 06:06 38.36711 22.69182 26060 ft 222 kts 292°
2026-04-23 06:06 38.37436 22.67439 26056 ft 222 kts 292°
2026-04-23 06:06 38.38160 22.65699 26056 ft 221 kts 292°
2026-04-23 06:06 38.38880 22.63971 26052 ft 221 kts 291°
2026-04-23 06:07 38.39598 22.62241 26059 ft 221 kts 292°
2026-04-23 06:07 38.40319 22.60505 26061 ft 221 kts 292°
2026-04-23 06:07 38.41036 22.58779 26064 ft 220 kts 292°
2026-04-23 06:07 38.41755 22.57047 26065 ft 221 kts 292°
2026-04-23 06:08 38.42474 22.55312 26063 ft 222 kts 292°
2026-04-23 06:08 38.43187 22.53591 26056 ft 222 kts 292°
2026-04-23 06:08 38.43909 22.51850 26059 ft 222 kts 292°
2026-04-23 06:08 38.44629 22.50111 26057 ft 221 kts 292°
2026-04-23 06:09 38.45347 22.48375 26058 ft 221 kts 292°
2026-04-23 06:09 38.46066 22.46637 26059 ft 222 kts 292°
2026-04-23 06:09 38.46787 22.44893 26057 ft 221 kts 292°
2026-04-23 06:09 38.47505 22.43156 26060 ft 221 kts 292°
2026-04-23 06:10 38.48219 22.41426 26057 ft 220 kts 292°
2026-04-23 06:10 38.48923 22.39720 26056 ft 219 kts 292°
2026-04-23 06:10 38.49640 22.37982 26055 ft 217 kts 292°
2026-04-23 06:10 38.50338 22.36287 26058 ft 220 kts 292°
2026-04-23 06:11 38.51052 22.34552 26064 ft 222 kts 292°
2026-04-23 06:11 38.51774 22.32799 26055 ft 223 kts 292°
2026-04-23 06:11 38.52492 22.31059 26061 ft 220 kts 292°
2026-04-23 06:11 38.53203 22.29330 26060 ft 219 kts 292°
2026-04-23 06:12 38.53909 22.27610 26057 ft 218 kts 292°
2026-04-23 06:12 38.54612 22.25900 26053 ft 217 kts 292°
2026-04-23 06:12 38.56021 22.22465 26061 ft 219 kts 292°
2026-04-23 06:13 38.56731 22.20732 26063 ft 221 kts 292°
2026-04-23 06:13 38.57447 22.18988 26060 ft 222 kts 292°
2026-04-23 06:13 38.58160 22.17252 26058 ft 220 kts 292°
2026-04-23 06:13 38.58864 22.15531 26056 ft 221 kts 292°
2026-04-23 06:14 38.59584 22.13771 26058 ft 221 kts 292°
2026-04-23 06:14 38.60285 22.12055 26055 ft 220 kts 292°
2026-04-23 06:14 38.60991 22.10330 26053 ft 218 kts 292°
2026-04-23 06:14 38.61695 22.08606 26054 ft 219 kts 292°
2026-04-23 06:15 38.62174 22.07433 26056 ft 220 kts 292°
2026-04-23 06:15 38.62879 22.05706 26057 ft 219 kts 292°
2026-04-23 06:15 38.63577 22.03994 26042 ft 220 kts 292°
2026-04-23 06:15 38.64282 22.02266 26063 ft 219 kts 292°
2026-04-23 06:16 38.64989 22.00530 26055 ft 220 kts 292°
2026-04-23 06:16 38.65693 21.98802 26053 ft 218 kts 292°
2026-04-23 06:16 38.66393 21.97084 26056 ft 217 kts 292°
2026-04-23 06:16 38.67088 21.95377 26045 ft 216 kts 292°
2026-04-23 06:17 38.67805 21.93672 26057 ft 218 kts 293°
2026-04-23 06:17 38.68531 21.91964 26048 ft 219 kts 293°
2026-04-23 06:17 38.69262 21.90241 26042 ft 220 kts 293°
2026-04-23 06:17 38.69981 21.88548 26039 ft 214 kts 293°
2026-04-23 06:18 38.70698 21.86853 26041 ft 220 kts 292°
2026-04-23 06:18 38.71428 21.85127 26045 ft 219 kts 293°
2026-04-23 06:18 38.72150 21.83425 26043 ft 218 kts 293°
2026-04-23 06:18 38.72871 21.81718 26044 ft 218 kts 293°
2026-04-23 06:19 38.73585 21.80032 26039 ft 219 kts 293°
2026-04-23 06:19 38.74310 21.78319 26044 ft 217 kts 293°
2026-04-23 06:19 38.75028 21.76619 26044 ft 216 kts 293°
2026-04-23 06:19 38.75745 21.74917 26039 ft 217 kts 293°
2026-04-23 06:20 38.76463 21.73218 26045 ft 217 kts 293°
2026-04-23 06:20 38.77183 21.71509 26039 ft 218 kts 293°
2026-04-23 06:20 38.77906 21.69797 26039 ft 218 kts 293°
2026-04-23 06:20 38.78621 21.68100 26036 ft 216 kts 293°
2026-04-23 06:21 38.79334 21.66406 26036 ft 215 kts 293°
2026-04-23 06:21 38.80033 21.64745 26031 ft 214 kts 293°
2026-04-23 06:21 38.80738 21.63067 26030 ft 214 kts 293°
2026-04-23 06:21 38.81447 21.61380 26026 ft 215 kts 292°
2026-04-23 06:22 38.82158 21.59687 26025 ft 215 kts 292°
2026-04-23 06:22 38.82867 21.57999 26027 ft 215 kts 292°
2026-04-23 06:22 38.83574 21.56314 26027 ft 215 kts 292°
2026-04-23 06:22 38.84285 21.54619 26026 ft 217 kts 293°
2026-04-23 06:23 38.84998 21.52919 26028 ft 216 kts 292°
2026-04-23 06:23 38.85709 21.51223 26027 ft 216 kts 292°
2026-04-23 06:23 38.86418 21.49531 26028 ft 215 kts 292°
2026-04-23 06:23 38.87126 21.47837 26027 ft 214 kts 292°
2026-04-23 06:24 38.87832 21.46152 26024 ft 214 kts 292°
2026-04-23 06:24 38.88534 21.44469 26024 ft 215 kts 293°
2026-04-23 06:24 38.89232 21.42801 26022 ft 215 kts 292°
2026-04-23 06:24 38.89939 21.41109 26019 ft 214 kts 292°
2026-04-23 06:25 38.90642 21.39423 26018 ft 214 kts 292°
2026-04-23 06:25 38.91349 21.37728 26015 ft 216 kts 292°
2026-04-23 06:25 38.92058 21.36026 26012 ft 216 kts 292°
2026-04-23 06:25 38.92768 21.34325 26013 ft 216 kts 293°
2026-04-23 06:26 38.93476 21.32626 25988 ft 216 kts 292°
2026-04-23 06:26 38.94192 21.30902 25771 ft 219 kts 293°
2026-04-23 06:26 38.94907 21.29189 25492 ft 216 kts 293°
2026-04-23 06:26 38.95603 21.27517 25208 ft 214 kts 292°
2026-04-23 06:27 38.96300 21.25837 24920 ft 212 kts 293°
2026-04-23 06:27 38.96998 21.24155 24641 ft 215 kts 292°
2026-04-23 06:27 38.97705 21.22449 24368 ft 217 kts 293°
2026-04-23 06:27 38.98417 21.20735 24074 ft 216 kts 293°
2026-04-23 06:28 38.99126 21.19027 23788 ft 217 kts 293°
2026-04-23 06:28 38.99837 21.17311 23482 ft 217 kts 293°
2026-04-23 06:28 39.00545 21.15604 23176 ft 216 kts 293°
2026-04-23 06:28 39.01248 21.13906 22875 ft 214 kts 293°
2026-04-23 06:29 39.01945 21.12222 22582 ft 213 kts 293°
2026-04-23 06:29 39.02642 21.10524 22297 ft 216 kts 292°
2026-04-23 06:29 39.03329 21.08810 22087 ft 216 kts 293°
2026-04-23 06:29 39.04022 21.07108 21798 ft 219 kts 293°
2026-04-23 06:30 39.04748 21.05345 21478 ft 221 kts 294°
2026-04-23 06:30 39.05462 21.03609 21161 ft 223 kts 294°
2026-04-23 06:30 39.06188 21.01840 20833 ft 224 kts 294°
2026-04-23 06:30 39.06914 21.00070 20506 ft 223 kts 294°
2026-04-23 06:31 39.07641 20.98296 20182 ft 224 kts 294°
2026-04-23 06:31 39.08369 20.96518 19858 ft 225 kts 294°
2026-04-23 06:31 39.09100 20.94734 19527 ft 225 kts 294°
2026-04-23 06:31 39.09832 20.92945 19204 ft 227 kts 294°
2026-04-23 06:32 39.10575 20.91126 18867 ft 231 kts 295°
2026-04-23 06:32 39.11325 20.89290 18531 ft 232 kts 295°
2026-04-23 06:32 39.12079 20.87447 18178 ft 233 kts 295°
2026-04-23 06:32 39.12834 20.85598 17824 ft 235 kts 295°
2026-04-23 06:33 39.13588 20.83747 17480 ft 238 kts 295°
2026-04-23 06:33 39.14360 20.81854 17134 ft 239 kts 295°
2026-04-23 06:33 39.15138 20.79945 16783 ft 241 kts 296°
2026-04-23 06:33 39.15920 20.78025 16431 ft 243 kts 296°
2026-04-23 06:34 39.16710 20.76083 16079 ft 246 kts 296°
2026-04-23 06:34 39.17507 20.74123 15716 ft 247 kts 296°
2026-04-23 06:34 39.18308 20.72153 15356 ft 250 kts 297°
2026-04-23 06:34 39.19112 20.70172 14995 ft 250 kts 297°
2026-04-23 06:35 39.19931 20.68156 14623 ft 255 kts 297°
2026-04-23 06:35 39.20753 20.66130 14253 ft 254 kts 297°
2026-04-23 06:35 39.21566 20.64124 13889 ft 256 kts 297°
2026-04-23 06:35 39.22390 20.62088 13496 ft 257 kts 297°
2026-04-23 06:36 39.23213 20.60056 13109 ft 252 kts 298°
2026-04-23 06:36 39.24011 20.58083 12743 ft 244 kts 298°
2026-04-23 06:36 39.24785 20.56170 12399 ft 239 kts 298°
2026-04-23 06:36 39.25552 20.54270 12051 ft 239 kts 298°
2026-04-23 06:37 39.26320 20.52368 11705 ft 240 kts 298°
2026-04-23 06:37 39.27092 20.50456 11359 ft 241 kts 298°
2026-04-23 06:37 39.27865 20.48539 11008 ft 241 kts 297°
2026-04-23 06:37 39.28637 20.46623 10659 ft 239 kts 298°
2026-04-23 06:38 39.29402 20.44722 10309 ft 238 kts 298°
2026-04-23 06:38 39.30168 20.42820 9961 ft 239 kts 298°
2026-04-23 06:38 39.30942 20.40898 9597 ft 243 kts 298°
2026-04-23 06:38 39.31713 20.38980 9237 ft 237 kts 298°
2026-04-23 06:39 39.32473 20.37084 8898 ft 239 kts 298°
2026-04-23 06:39 39.33240 20.35174 8547 ft 240 kts 298°
2026-04-23 06:39 39.34001 20.33277 8200 ft 236 kts 298°
2026-04-23 06:39 39.34756 20.31396 7859 ft 236 kts 298°
2026-04-23 06:40 39.35512 20.29512 7517 ft 236 kts 298°
2026-04-23 06:40 39.36264 20.27634 7172 ft 235 kts 298°
2026-04-23 06:40 39.37011 20.25764 6830 ft 234 kts 298°
2026-04-23 06:40 39.37753 20.23914 6497 ft 235 kts 298°
2026-04-23 06:41 39.38502 20.22039 6138 ft 234 kts 298°
2026-04-23 06:41 39.39249 20.20168 5793 ft 234 kts 298°
2026-04-23 06:41 39.39975 20.18352 5464 ft 236 kts 298°
2026-04-23 06:41 39.40728 20.16465 5116 ft 237 kts 298°
2026-04-23 06:42 39.41483 20.14572 4777 ft 237 kts 298°
2026-04-23 06:42 39.42237 20.12678 4424 ft 236 kts 298°
2026-04-23 06:42 39.42982 20.10805 4079 ft 234 kts 299°
2026-04-23 06:42 39.43720 20.08934 3736 ft 233 kts 297°
2026-04-23 06:43 39.44120 20.07075 3494 ft 200 kts 278°
2026-04-23 06:43 39.44109 20.05258 3464 ft 200 kts 263°
2026-04-23 06:43 39.43868 20.03531 3464 ft 196 kts 261°
2026-04-23 06:43 39.43631 20.01778 3409 ft 195 kts 262°
2026-04-23 06:44 39.43401 20.00045 3328 ft 196 kts 263°
2026-04-23 06:44 39.43490 19.98335 3224 ft 193 kts 288°
2026-04-23 06:44 39.44090 19.96810 3086 ft 186 kts 311°
2026-04-23 06:44 39.45059 19.95731 2972 ft 186 kts 333°
2026-04-23 06:45 39.46249 19.95184 2836 ft 178 kts 350°
2026-04-23 06:45 39.47500 19.94842 2554 ft 191 kts 349°
2026-04-23 06:45 39.48786 19.94470 2274 ft 174 kts 349°
2026-04-23 06:45 39.49873 19.94153 2035 ft 155 kts 349°
2026-04-23 06:46 39.50943 19.93846 1797 ft 148 kts 349°
2026-04-23 06:46 39.51992 19.93543 1575 ft 157 kts 349°
2026-04-23 06:46 39.52953 19.93267 1386 ft 133 kts 349°
2026-04-23 06:46 39.53870 19.93003 1181 ft 129 kts 349°
2026-04-23 06:47 39.54616 19.92789 1010 ft 100 kts 349°
2026-04-23 06:47 39.55348 19.92574 879 ft 113 kts 348°
2026-04-23 06:47 39.56063 19.92377 690 ft 92 kts 346°
2026-04-23 06:47 39.56663 19.92203 453 ft 85 kts 342°
2026-04-23 06:48 39.57257 19.91981 345 ft 96 kts 343°
2026-04-23 06:48 39.57927 19.91811 312 ft 97 kts 344°
2026-04-23 06:48 39.58569 19.91642 215 ft 90 kts 344°
2026-04-23 06:48 39.59175 19.91482 85 ft 86 kts 342°
2026-04-23 06:49 39.59733 19.91334 17 ft 74 kts 346°
2026-04-23 06:49 39.60148 19.91226 18 ft 56 kts 348°
2026-04-23 06:49 39.60412 19.91152 16 ft 30 kts 349°
2026-04-23 06:49 39.60560 19.91182 15 ft 13 kts 25°
2026-04-23 06:50 39.60597 19.91221 15 ft 0 kts 50°
2026-04-23 06:50 39.60599 19.91224 15 ft 3 kts 47°
2026-04-23 06:50 39.60673 19.91224 15 ft 19 kts 347°
2026-04-23 06:51 39.60841 19.91176 15 ft 25 kts 355°
2026-04-23 06:51 39.60972 19.91145 15 ft 15 kts 348°
2026-04-23 06:51 39.61082 19.91114 15 ft 15 kts 350°
2026-04-23 06:51 39.61127 19.91123 15 ft 6 kts 77°
2026-04-23 06:52 39.61133 19.91168 15 ft 1 kts 67°
2026-04-23 06:52 39.61141 19.91174 15 ft 2 kts
2026-04-23 06:52 39.61195 19.91161 15 ft 4 kts 351°
2026-04-23 06:52 39.61202 19.91150 15 ft 1 kts 281°
2026-04-23 06:53 39.61201 19.91145 15 ft 0 kts 265°